Regional Weather Roundup
Issued by NWS

Home | Current Version | Previous Version | Graphics & Text | Print | Product List | Glossary On
Versions: 1 2 3 4 5 6 7 8 9 10 11 12 13 14 15 16 17 18 19 20 21 22 23 24 25 26 27 28 29 30 31 32 33 34 35 36 37 38 39 40 41 42 43 44 45 46 47 48 49 50
000
ASUS43 KLOT 100403
RWRIL

ILLINOIS REGIONAL WEATHER ROUNDUP
NATIONAL WEATHER SERVICE CHICAGO/ROMEOVILLE IL
1000 PM CST FRI DEC 09 2016

NOTE: "FAIR" INDICATES FEW OR NO CLOUDS BELOW 12,000 FEET WITH NO
SIGNIFICANT WEATHER AND/OR OBSTRUCTIONS TO VISIBILITY.

* THESE STATIONS ARE NOT UNDER NWS QUALITY CONTROL. THEY ALSO MAY NOT
  REPORT WEATHER SUCH AS PRECIPITATION OR FOG.

ILZ001-002-007-009-015-016-024-100500-
NORTHWEST ILLINOIS

CITY           SKY/WX    TMP DP  RH WIND       PRES   REMARKS
MOLINE         PTCLDY    20  13  74 W3        30.54S
STERLING*      CLOUDY    20  14  77 NW8       30.53S WCI  10
SAVANNA*       PTCLDY    19  13  78 W6        30.53S WCI  10
$$

ILZ003-004-008-010-011-017-018-100500-
NORTH CENTRAL ILLINOIS

CITY           SKY/WX    TMP DP  RH WIND       PRES   REMARKS
ROCKFORD       MOCLDY    16  10  77 W5        30.52S WCI   9
FREEPORT*      CLEAR     16  11  81 W7        30.51S WCI   6
ROCHELLE*      PTCLDY    11   8  88 CALM      30.52R
$$

ILZ005-006-012>014-019>023-100500-
NORTHEAST ILLINOIS

CITY           SKY/WX    TMP DP  RH WIND       PRES   REMARKS
CHICAGO-OHARE  CLOUDY    19  12  74 W8        30.50R WCI   9
CHICAGO-MIDWAY MOCLDY    20  12  71 SW6       30.52R WCI  12
AURORA         CLOUDY    16  11  80 W6        30.52R WCI   7
LANSING*       PTCLDY    18  15  86 W6        30.52S WCI  10
WAUKEGAN       CLEAR     19  12  74 W3        30.48R
DUPAGE AIRPORT CLOUDY    17  10  74 SW7       30.50R WCI   8
KANKAKEE*      CLOUDY    24  13  64 W8        30.54S WCI  14
WHEELING       PTCLDY    19  11  70 SW6       30.52R WCI  11
MORRIS*        CLOUDY    18  13  81 CALM      30.52S
NORTHERLY ISL    N/A     22  13  68 SW8         N/A  WCI  13
$$

LMZ740>746-100500-
SOUTHERN LAKE MICHIGAN

STATION/POSITION SKY/WX   TEMP    WIND        PRES    VSBY  WAVE
                          AIR SEA DIR/SP/G                  HT/PER
                          (F)     (DEG/KT/KT) (MB)    (MI)  (FT/S)
BURNHAM HARBOR             22     280/  7/  9   N/A
CALUMET HARBOR             20     220/  4/  6 1032.3S
BURNS HARBOR               22     220/  9/ 11 1033.2F
$$

ILZ025>027-034>036-040-047-049-050-058-095>099-100500-
WEST-CENTRAL ILLINOIS

CITY           SKY/WX    TMP DP  RH WIND       PRES   REMARKS
QUINCY         CLOUDY    22  15  75 CALM      30.56S
GALESBURG*     CLOUDY    20  15  81 SW3       30.54S
MACOMB*        CLOUDY    21  16  78 W3        30.57S
JACKSONVILLE*  CLOUDY    22  17  79 W3        30.57F
PITTSFIELD*    CLOUDY    24  16  73 CALM      30.58S
$$

ILZ028>032-037-038-041>044-048-051>054-059>061-100500-
CENTRAL ILLINOIS

CITY           SKY/WX    TMP DP  RH WIND       PRES   REMARKS
PONTIAC        CLOUDY    24  16  71 W8        30.55S WCI  15
BLOOMINGTON    CLOUDY    21  15  78 W7        30.53F WCI  12
DECATUR        CLOUDY    22  13  68 NW6       30.56R WCI  14
PEORIA         CLOUDY    22  13  68 W7        30.56S WCI  13
LACON*         CLOUDY    22  13  67 W7        30.54S WCI  14
LINCOLN*       CLOUDY    23  14  69 W3        30.57S
SPRINGFIELD    CLOUDY    24  16  71 CALM      30.58S
TAYLORVILLE    CLOUDY    23  16  75 CALM      30.58R
$$

ILZ033-039-045-046-055>057-062-063-100500-
EAST-CENTRAL ILLINOIS

CITY           SKY/WX    TMP DP  RH WIND       PRES   REMARKS
CHAMPAIGN      CLOUDY    21  14  74 W6        30.55S WCI  13
RANTOUL*       CLOUDY    24  17  74 W8        30.54S WCI  15
MATTOON        CLOUDY    23  14  68 NW6       30.55R WCI  16
PARIS*         CLEAR     20  17  88 W6        30.57R WCI  13
$$

ILZ079-100>102-100500-
SOUTHWEST ILLINOIS

CITY           SKY/WX    TMP DP  RH WIND       PRES   REMARKS
ALTON          CLOUDY    21  18  86 CALM      30.59S
BELLEVILLE     CLOUDY    20  16  85 CALM      30.58R
CAHOKIA*       CLOUDY    22  16  78 CALM      30.60R
SPARTA*        PTCLDY    21  16  81 CALM      30.60S
$$

ILZ064>066-069>071-074>076-080>082-084>086-088>090-092>094-100500-
SOUTH-CENTRAL ILLINOIS

CITY           SKY/WX    TMP DP  RH WIND       PRES   REMARKS
CARBONDALE     CLEAR     19  16  88 CALM      30.60R
CAIRO*         CLEAR     20  17  88 CALM      30.61R
EFFINGHAM*     CLOUDY    22  20  92 SW3       30.60R
MARION         CLEAR     19  18  93 CALM      30.60R
CENTRALIA*     PTCLDY    20  18  91 CALM      30.59R
SALEM*         CLOUDY    21  15  79 CALM      30.59R
METROPOLIS*    CLEAR     20  16  83 CALM      30.61R
$$

ILZ067-068-072-073-078-083-087-091-100500-
SOUTHEAST ILLINOIS

CITY           SKY/WX    TMP DP  RH WIND       PRES   REMARKS
LAWRENCEVILLE  MOCLDY    23  16  74 NW5       30.58R WCI  17
FLORA*         MOCLDY    20  17  87 CALM      30.60R
FAIRFIELD*     CLEAR     19  17  90 CALM      30.59R
HARRISBURG*    CLEAR     20  17  86 CALM      30.61R
ROBINSON*      CLOUDY    23  19  83 W5        30.59R WCI  17
CARMI*         CLEAR     20  17  88 CALM      30.59R
$$

ABBREVIATIONS USED IN REMARKS
   TC - TEMPERATURE IN CELSIUS
  WCI - WIND CHILL INDEX
   HX - HEAT INDEX
  VSB - VISIBILITY
$$





USA.gov is the U.S. government's official web portal to all federal, state and local government web resources and services.